Helicity
151 125 101 70 123 126 104 205 356 184 186 336 394 313 286 144 247 266 306 390 318 282 257 230 232 286 245 120 299 297 356 285 250 209 210 164 238 251 356 365 263 322 302 242
86 90 92 116 84 90 196 260 253 202 271 349 372 253 204 165 163 125 79 219 229 200 233 321 304 230 261 211 222 233 304 253 342 319 274 233 234 272 345 333 310 321 300 295
51 64 76 116 114 79 166 222 290 228 246 271 291 301 218 227 128 175 132 201 254 246 326 335 280 254 319 335 371 251 218 277 277 274 176 162 231 274 320 342 324 310 340 310
41 53 58 45 125 106 179 219 256 236 302 276 227 189 264 184 210 78 130 5 28 160 386 282 370 388 403 391 458 279 250 216 206 192 182 212 185 241 289 258 274 327 223 207
69 49 55 66 69 77 127 209 254 201 240 186 141 177 143 169 116 151 69 91 17 85 54 131 143 375 427 462 298 296 336 197 231 206 236 241 224 229 200 219 257 249 268 238
53 57 58 56 79 110 121 217 196 169 202 184 202 168 97 84 117 107 91 146 90 117 84 37 61 55 146 325 243 236 215 245 261 241 250 267 194 239 220 228 257 248 270 234
46 49 56 60 69 110 122 173 299 229 138 168 150 108 102 98 119 80 102 80 124 83 102 148 227 175 97 125 78 60 132 263 273 256 279 251 264 174 165 186 247 263 301 243
30 44 42 53 48 64 122 -20 137 131 165 127 121 103 93 52 80 76 89 108 161 219 166 177 354 382 317 177 161 174 238 330 298 281 299 231 213 197 160 155 182 216 226 310
33 35 34 30 42 33 125 80 48 80 39 -44 71 114 88 90 66 68 83 88 155 285 363 341 233 374 298 215 226 347 404 319 340 253 271 172 94 134 132 188 226 182 197 237
38 33 34 38 46 53 110 103 124 63 34 -159 -8 89 66 101 124 131 147 143 135 199 245 289 407 296 293 249 274 367 388 385 290 290 177 147 165 169 170 239 123 181 219 202
33 37 51 50 42 42 87 112 109 115 41 -99 -130 -91 72 124 124 139 153 267 210 244 220 260 232 209 228 207 139 209 297 312 269 253 237 186 132 159 147 105 156 175 176 147
19 24 36 41 40 26 56 64 86 118 88 -48 -77 -126 -19 61 88 81 225 168 279 187 264 153 200 173 158 199 198 191 186 148 161 175 134 162 80 103 133 118 135 127 156 138
17 24 25 29 25 -5 22 60 81 157 48 -77 -150 -138 20 -40 46 69 130 233 185 213 254 235 238 175 191 174 176 198 178 186 200 185 158 142 147 208 172 159 132 100 128 140
19 19 16 22 14 -5 36 57 66 114 9 -147 -196 -117 -41 6 -9 -9 157 108 274 224 252 232 181 184 141 140 108 153 136 167 177 203 144 151 169 182 187 184 171 206 193 173
11 16 10 29 16 10 34 48 43 57 25 -67 -158 -168 -149 22 107 210 89 174 134 212 237 249 199 184 139 180 160 138 114 128 161 85 110 143 135 155 167 174 176 187 242 231
3 2 15 41 30 26 69 51 34 57 11 -62 -157 -59 -8 180 205 217 164 253 380 281 188 204 176 168 135 161 145 75 57 72 114 68 124 150 213 203 184 185 187 184 193 167
1 9 43 45 47 88 83 66 44 109 66 -42 -58 -6 135 204 171 178 112 128 115 141 164 160 156 179 182 151 91 56 103 129 143 177 253 211 173 164 199 231 233 240 218 172
31 45 65 62 45 69 57 95 1 127 41 -5 -8 94 223 293 194 183 151 128 170 171 128 136 151 173 156 88 54 112 149 164 167 166 97 127 211 241 221 234 233 222 177 151
58 67 59 115 80 56 24 15 60 29 33 21 36 153 176 285 250 223 185 138 140 128 111 127 118 133 84 -2 84 131 135 86 98 144 165 193 221 210 187 191 169 184 153 135
64 125 153 110 59 23 112 70 62 64 33 6 39 117 90 128 214 215 157 140 115 73 84 92 79 74 49 29 75 68 78 139 151 194 173 202 214 192 166 131 137 141 147 133
207 108 122 117 156 126 55 39 76 53 46 22 51 65 159 224 193 222 153 93 91 64 70 75 47 34 51 80 100 86 79 72 53 73 105 135 203 209 200 175 159 152 137 116
134 127 212 201 104 33 79 90 92 41 24 51 88 161 228 263 206 154 136 86 87 43 69 70 7 24 79 108 122 111 99 113 106 111 160 159 175 180 194 181 161 142 141 144
225 273 170 130 131 121 25 36 82 10 39 67 198 255 219 185 192 112 98 81 55 53 60 22 -1 57 114 137 169 177 154 165 179 196 206 224 206 174 184 188 160 162 161 144
211 189 150 158 113 82 30 16 53 61 53 186 302 338 205 201 138 96 97 82 62 57 27 21 39 45 123 143 151 216 164 182 222 225 222 224 209 193 174 172 157 175 156 128
171 164 133 62 83 63 29 73 132 106 153 281 275 205 126 174 110 109 70 64 44 14 28 37 26 101 165 174 169 194 202 215 238 241 241 211 199 188 183 151 152 162 171 160
96 89 49 45 56 58 63 96 154 182 258 269 174 130 130 115 90 72 50 30 30 27 21 36 101 131 130 142 139 159 176 189 205 197 186 179 170 164 156 155 148 143 161 143
110 113 86 78 121 95 119 114 166 153 177 105 106 110 69 72 52 38 19 15 15 30 35 26 58 108 117 139 156 158 173 190 187 185 163 149 162 191 181 160 109 132 130 98
Wind_Speed
71 64 64 62 61 55 52 57 77 49 44 72 75 82 72 68 77 78 73 64 71 80 71 71 73 74 63 48 48 54 52 51 60 55 48 41 44 49 48 62 67 64 71 83
62 63 59 61 61 53 54 64 69 52 55 90 84 82 81 78 66 69 69 73 64 59 67 70 68 67 58 49 45 46 41 52 58 59 55 47 53 51 50 54 57 68 73 72
67 65 63 57 60 56 56 59 72 68 68 66 81 84 85 84 78 85 64 66 80 69 71 62 65 67 58 53 52 47 35 47 54 65 55 44 54 54 51 52 66 68 67 65
63 65 58 52 66 57 57 61 72 61 78 79 82 84 75 85 81 74 76 83 69 63 74 67 71 64 62 57 53 48 46 55 53 54 50 49 56 56 51 56 60 64 68 63
65 63 69 62 66 57 61 58 62 63 73 70 77 80 90 86 86 85 81 88 84 73 68 51 60 61 57 56 52 52 46 54 52 59 55 57 67 59 54 54 56 62 64 68
62 66 68 76 73 65 55 53 51 53 67 69 74 82 85 85 82 79 97 85 81 83 80 70 63 55 65 55 56 56 53 51 56 66 59 62 78 61 55 56 54 56 65 58
66 71 74 76 77 71 60 51 47 54 79 62 77 75 79 82 78 89 79 77 81 77 54 53 61 64 63 58 60 55 59 56 59 65 58 79 63 52 51 51 54 54 53 41
67 69 75 74 76 84 74 69 50 51 61 63 70 75 75 79 74 82 81 69 55 37 44 52 55 61 59 56 61 60 57 55 61 63 66 70 67 49 46 47 56 42 33 26
72 73 74 75 75 80 70 75 61 47 66 77 52 63 73 71 75 80 83 70 54 46 50 61 59 59 57 57 56 48 40 41 48 49 62 66 52 46 40 33 55 32 19 13
69 72 74 69 68 71 62 65 68 67 64 66 57 48 56 62 60 67 62 57 57 61 51 50 58 57 46 58 63 60 51 47 52 53 61 58 46 40 35 45 49 18 17 14
72 66 65 65 63 64 62 66 67 72 74 81 69 59 60 59 65 65 56 55 63 67 67 60 54 51 52 51 42 48 50 50 53 49 54 64 35 31 36 29 22 15 14 16
78 75 70 68 64 62 57 68 71 73 71 73 68 72 66 63 70 71 50 65 68 61 58 61 47 48 42 39 45 41 45 36 39 35 39 34 33 32 25 16 12 13 15 16
81 83 82 80 77 73 75 67 63 66 71 81 88 84 67 68 79 78 62 56 55 56 47 37 41 46 44 46 49 33 31 28 31 32 39 33 27 23 17 10 14 13 14 14
81 82 87 87 83 81 73 74 58 67 63 73 74 66 68 69 76 85 71 40 45 45 40 43 43 44 38 40 30 30 29 21 25 35 27 24 26 17 9 11 14 16 17 17
89 84 83 87 82 80 66 67 61 65 65 59 60 64 63 69 65 59 53 32 39 34 36 38 38 30 24 29 28 27 21 22 23 32 18 26 17 7 7 9 13 14 16 21
95 94 90 86 77 66 53 60 70 63 56 49 51 45 50 49 39 43 37 27 27 33 33 35 37 36 35 32 34 29 22 21 18 26 8 19 4 6 10 11 13 15 17 18
103 98 89 82 71 65 59 53 50 55 49 49 45 43 34 34 23 27 34 23 25 26 29 35 36 34 34 36 39 24 18 14 14 11 12 12 6 8 10 13 16 18 21 23
69 80 84 77 71 63 64 42 31 30 52 49 42 35 35 31 31 28 24 29 25 28 31 32 35 34 31 34 23 14 8 7 9 10 18 10 12 13 14 16 16 18 20 21
77 80 78 69 70 65 65 41 40 39 44 42 38 34 34 34 27 23 23 23 29 32 35 34 33 34 37 28 4 2 8 5 7 13 15 15 13 12 14 16 15 16 17 19
86 86 72 63 68 38 41 45 48 47 48 43 42 39 33 32 32 28 25 25 32 34 33 28 35 38 34 8 6 11 4 10 12 11 12 11 12 13 13 12 13 15 15 17
90 75 62 49 46 46 47 52 53 50 53 49 41 39 30 30 29 30 28 28 30 34 35 29 35 42 23 4 6 5 7 15 14 14 15 16 17 14 13 14 15 16 16 16
78 55 49 49 46 46 51 58 54 55 57 42 40 28 22 30 29 32 31 31 30 30 27 33 41 27 6 13 13 9 15 14 13 16 17 17 17 16 16 16 17 16 17 18
60 52 49 52 49 58 66 72 64 60 55 46 34 31 34 34 29 29 32 32 38 22 29 37 35 13 10 20 17 11 10 13 15 16 16 17 17 17 17 17 17 17 17 18
53 53 58 56 59 58 56 61 57 40 28 18 17 26 35 34 29 29 33 33 26 31 37 42 31 25 24 20 18 17 13 12 13 14 15 15 15 16 17 17 17 16 16 17
41 41 53 51 49 46 44 44 40 39 11 15 16 26 27 26 27 31 29 30 33 38 44 41 22 27 26 22 17 15 13 13 12 13 14 14 15 15 16 17 17 17 17 18
37 40 44 43 46 44 40 32 18 21 13 12 19 19 24 37 31 34 33 30 43 40 42 19 22 31 28 24 18 14 14 14 14 14 14 14 14 14 15 17 17 16 17 17
35 38 31 34 33 34 32 18 11 12 13 9 17 22 29 21 32 36 43 43 37 37 14 19 29 33 29 20 17 15 15 15 15 15 14 14 14 15 15 15 15 16 16 18
Wind_Direction
256 255 252 251 249 252 251 255 255 258 238 243 247 249 251 258 256 259 261 270 266 264 264 264 260 262 267 270 264 260 263 279 277 279 295 287 286 286 286 290 296 297 299 300
254 253 253 250 248 243 248 253 254 259 247 246 248 249 253 254 255 257 257 261 264 269 264 267 268 264 272 273 261 262 255 269 275 285 288 289 284 287 289 295 298 293 297 303
252 252 253 245 248 241 244 251 253 251 248 251 248 249 249 251 253 255 263 269 261 267 264 265 267 267 270 270 268 262 244 267 268 274 287 291 287 286 286 286 291 296 291 300
254 251 254 243 246 242 240 248 248 253 247 245 246 246 254 249 252 252 255 257 264 261 265 261 263 269 271 268 265 254 253 265 271 280 287 290 294 292 287 283 287 289 298 295
254 253 248 244 240 240 241 246 248 250 254 248 245 246 248 251 251 251 255 255 258 256 261 265 266 268 267 263 252 254 263 269 276 277 284 291 292 294 294 292 293 292 296 297
254 251 249 241 238 235 247 247 252 252 253 248 244 244 248 249 250 256 252 257 259 259 262 264 264 270 268 265 260 257 267 266 273 279 288 293 289 292 289 292 293 295 293 298
251 247 244 239 236 235 240 255 247 251 248 250 245 247 248 249 251 253 258 256 258 265 270 279 263 260 259 258 258 260 261 266 276 281 289 284 297 306 300 297 300 298 301 302
250 247 239 237 235 230 238 242 251 251 250 252 256 249 252 254 256 254 254 255 257 267 259 260 260 257 260 256 255 258 265 268 276 278 282 291 296 304 305 302 302 309 308 311
243 240 237 236 234 232 239 239 242 261 249 246 266 255 248 254 255 255 253 252 250 259 260 249 255 252 249 252 253 273 279 273 272 284 284 289 304 308 312 318 300 315 313 312
240 238 234 235 236 234 240 242 241 249 252 247 252 261 256 253 253 257 254 248 245 240 246 253 251 254 253 255 259 263 264 271 269 277 285 295 300 312 320 296 309 319 315 314
236 237 235 235 238 237 240 243 242 238 247 243 245 260 264 259 249 250 249 237 239 237 241 247 252 257 256 268 268 263 263 268 273 280 285 289 307 313 305 320 333 331 336 330
230 231 234 235 237 236 239 242 236 236 245 234 234 240 248 254 251 247 239 243 234 237 241 248 260 262 259 264 267 272 268 276 279 283 292 306 315 313 323 336 345 335 339 348
227 227 226 225 227 226 226 227 233 232 233 235 235 235 253 263 239 241 244 241 237 245 250 252 261 257 259 262 266 274 281 285 291 291 296 308 315 321 336 359 347 359 6 6
223 223 219 218 218 213 220 223 231 224 228 221 225 242 258 260 239 211 232 246 245 253 248 252 258 261 268 263 280 278 283 277 291 298 311 320 315 318 4 9 12 9 4 6
218 221 217 214 214 211 226 228 233 231 225 219 238 250 254 254 224 228 228 225 240 234 238 253 256 268 276 272 279 285 284 291 287 298 298 306 304 342 28 9 358 10 6 357
212 209 209 208 211 216 223 221 227 222 217 224 226 245 240 231 237 214 218 223 239 243 245 249 250 256 263 272 278 292 289 305 310 311 344 319 18 37 355 10 18 17 22 26
192 202 203 203 209 211 214 217 224 224 228 222 224 233 229 207 210 210 213 227 240 247 250 251 249 260 270 274 272 297 299 321 333 27 32 3 43 354 36 35 32 32 27 25
200 198 197 200 203 210 215 231 226 226 218 219 225 231 217 221 208 215 233 233 247 255 254 257 254 260 274 279 289 304 328 358 39 357 334 36 57 64 48 49 54 38 25 27
187 185 185 189 200 204 207 215 217 230 226 219 218 215 207 219 225 226 230 254 241 254 250 253 254 260 269 285 270 167 113 17 58 353 31 64 72 69 68 67 49 32 30 32
171 171 181 193 196 198 205 215 219 219 224 231 224 223 224 223 223 233 250 266 249 252 262 265 265 266 276 295 136 120 58 75 68 35 9 42 66 84 77 56 46 46 44 40
168 177 185 183 184 197 208 212 211 218 219 224 230 228 227 235 226 233 263 262 263 263 262 273 271 261 276 207 154 114 82 94 74 42 74 89 96 91 71 53 53 56 47 36
172 174 170 180 197 205 209 205 210 211 213 229 228 232 230 232 240 249 261 261 268 278 268 265 264 283 249 140 131 114 102 85 47 57 71 73 76 77 73 67 66 56 35 27
166 177 185 192 200 198 196 195 201 203 209 221 218 215 226 233 256 263 262 267 255 283 273 268 271 286 139 130 125 106 79 78 60 57 59 67 66 65 68 63 61 48 28 24
182 185 185 193 196 203 207 205 209 226 235 201 198 226 241 242 252 265 260 262 273 273 264 256 266 127 130 127 123 115 103 84 73 72 72 71 68 60 55 60 67 51 37 27
191 198 194 202 206 208 212 214 218 219 179 153 218 245 253 246 263 261 262 262 267 258 245 246 113 126 127 124 118 109 99 92 82 79 78 77 73 63 55 59 56 45 37 21
201 199 196 205 205 209 216 220 214 215 163 198 247 267 252 242 256 249 256 259 241 246 240 278 109 124 124 121 113 100 93 89 85 80 80 79 77 67 56 50 53 48 32 16
205 205 216 214 214 216 225 231 212 200 141 196 260 262 246 261 257 247 233 239 251 244 294 89 115 123 121 111 101 96 94 92 89 86 81 74 60 52 43 35 49 49 38 21